Time,TemperatureF,DewpointF,PressureIn,WindDirection,WindDirectionDegrees,WindSpeedMPH,WindSpeedGustMPH,Humidity,HourlyPrecipIn,Conditions,Clouds,dailyrainin,SoftwareType,DateUTC
2013-07-21 00:01:00,77.4,67.7,29.09,South,178,0.0,0.0,72,0.00,,---,0.00,VWS V14.00,2013-07-21 05:01:00,
2013-07-21 00:04:00,77.4,67.7,29.09,South,178,0.0,0.0,72,0.00,,---,0.00,VWS V14.00,2013-07-21 05:04:00,
2013-07-21 00:07:00,77.4,67.7,29.09,South,178,0.0,0.0,72,0.00,,---,0.00,VWS V14.00,2013-07-21 05:07:00,
2013-07-21 00:10:00,77.4,67.7,29.09,South,178,0.0,0.0,72,0.00,,---,0.00,VWS V14.00,2013-07-21 05:10:00,
2013-07-21 00:13:00,77.4,67.7,29.09,South,178,0.0,0.0,72,0.00,,---,0.00,VWS V14.00,2013-07-21 05:13:00,
2013-07-21 00:16:00,77.4,67.7,29.09,South,178,0.0,0.0,72,0.00,,---,0.00,VWS V14.00,2013-07-21 05:16:00,
2013-07-21 00:22:00,77.2,67.9,29.09,South,178,0.0,0.0,73,0.00,,---,0.00,VWS V14.00,2013-07-21 05:22:00,
2013-07-21 00:25:00,77.4,67.7,29.09,South,178,0.0,0.0,72,0.00,,---,0.00,VWS V14.00,2013-07-21 05:25:00,
2013-07-21 00:28:00,77.4,67.7,29.09,South,178,0.0,0.0,72,0.00,,---,0.00,VWS V14.00,2013-07-21 05:28:00,
2013-07-21 00:31:00,77.4,67.7,29.09,South,178,0.0,0.0,72,0.00,,---,0.00,VWS V14.00,2013-07-21 05:31:00,
2013-07-21 00:34:00,77.6,67.9,29.09,South,178,0.0,0.0,72,0.00,,---,0.00,VWS V14.00,2013-07-21 05:34:00,
2013-07-21 00:40:00,77.6,67.9,29.09,South,178,0.0,0.0,72,0.00,,---,0.00,VWS V14.00,2013-07-21 05:40:00,
2013-07-21 00:43:00,77.4,68.1,29.09,South,178,0.0,0.0,73,0.00,,---,0.00,VWS V14.00,2013-07-21 05:43:00,
2013-07-21 00:46:00,77.4,68.1,29.09,SSE,167,3.1,3.6,73,0.00,,---,0.00,VWS V14.00,2013-07-21 05:46:00,
2013-07-21 00:52:00,77.4,68.1,29.09,SSE,166,4.0,5.4,73,0.00,,---,0.00,VWS V14.00,2013-07-21 05:52:00,
2013-07-21 00:55:00,77.2,67.9,29.09,South,182,3.1,5.4,73,0.00,,---,0.00,VWS V14.00,2013-07-21 05:55:00,
2013-07-21 01:01:00,77.2,67.9,29.09,South,179,2.7,5.4,73,0.00,,---,0.00,VWS V14.00,2013-07-21 06:01:00,
2013-07-21 01:04:00,77.2,67.9,29.09,South,181,2.2,3.1,73,0.00,,---,0.00,VWS V14.00,2013-07-21 06:04:00,
2013-07-21 01:10:00,77.2,67.9,29.09,South,181,3.6,4.0,73,0.00,,---,0.00,VWS V14.00,2013-07-21 06:10:00,
2013-07-21 01:13:00,77.2,67.9,29.09,SSE,159,3.1,4.0,73,0.00,,---,0.00,VWS V14.00,2013-07-21 06:13:00,
2013-07-21 01:16:00,77.2,67.9,29.09,SSE,152,2.7,4.0,73,0.00,,---,0.00,VWS V14.00,2013-07-21 06:16:00,
2013-07-21 01:22:00,77.2,67.9,29.09,SSE,160,5.8,6.3,73,0.00,,---,0.00,VWS V14.00,2013-07-21 06:22:00,
2013-07-21 01:25:00,77.2,67.9,29.09,SSE,163,4.0,6.3,73,0.00,,---,0.00,VWS V14.00,2013-07-21 06:25:00,
2013-07-21 01:31:00,77.1,68.1,29.09,SSE,164,3.1,6.3,74,0.00,,---,0.00,VWS V14.00,2013-07-21 06:31:00,
2013-07-21 01:34:00,77.1,68.1,29.09,South,181,4.9,6.3,74,0.00,,---,0.00,VWS V14.00,2013-07-21 06:34:00,
2013-07-21 01:37:00,77.1,68.1,29.09,SSE,162,4.0,6.3,74,0.00,,---,0.00,VWS V14.00,2013-07-21 06:37:00,
2013-07-21 01:41:00,76.9,68.0,29.09,SSE,165,3.6,6.3,74,0.00,,---,0.00,VWS V14.00,2013-07-21 06:41:00,
2013-07-21 01:44:00,76.9,68.0,29.09,South,176,5.4,6.3,74,0.00,,---,0.00,VWS V14.00,2013-07-21 06:44:00,
2013-07-21 01:46:00,76.9,68.0,29.09,SSE,153,2.7,6.3,74,0.00,,---,0.00,VWS V14.00,2013-07-21 06:46:00,
2013-07-21 01:47:00,76.9,68.0,29.09,SSE,165,2.7,2.7,74,0.00,,---,0.00,VWS V14.00,2013-07-21 06:47:00,
2013-07-21 01:53:00,76.9,68.0,29.09,South,174,4.0,5.8,74,0.00,,---,0.00,VWS V14.00,2013-07-21 06:53:00,
2013-07-21 01:56:00,76.7,67.8,29.09,SSE,151,2.7,5.8,74,0.00,,---,0.00,VWS V14.00,2013-07-21 06:56:00,
2013-07-21 01:59:00,76.7,67.8,29.06,SE,134,0.0,5.8,74,0.00,,---,0.00,VWS V14.00,2013-07-21 06:59:00,
2013-07-21 02:01:00,76.5,67.6,29.06,ESE,114,0.0,5.8,74,0.00,,---,0.00,VWS V14.00,2013-07-21 07:01:00,
2013-07-21 02:02:00,76.5,67.6,29.06,SE,138,0.0,0.0,74,0.00,,---,0.00,VWS V14.00,2013-07-21 07:02:00,
2013-07-21 02:05:00,76.5,67.6,29.06,SSE,155,0.0,3.1,74,0.00,,---,0.00,VWS V14.00,2013-07-21 07:05:00,
2013-07-21 02:08:00,76.5,67.6,29.06,ESE,104,0.0,3.1,74,0.00,,---,0.00,VWS V14.00,2013-07-21 07:08:00,
2013-07-21 02:11:00,76.3,67.4,29.06,SSE,153,0.0,3.1,74,0.00,,---,0.00,VWS V14.00,2013-07-21 07:11:00,
2013-07-21 02:14:00,76.3,67.4,29.09,SSE,153,0.0,3.1,74,0.00,,---,0.00,VWS V14.00,2013-07-21 07:14:00,
2013-07-21 02:16:00,76.3,67.4,29.09,SSE,153,0.0,3.1,74,0.00,,---,0.00,VWS V14.00,2013-07-21 07:16:00,
2013-07-21 02:17:00,76.3,67.4,29.09,SSE,153,0.0,0.0,74,0.00,,---,0.00,VWS V14.00,2013-07-21 07:17:00,
2013-07-21 02:20:00,76.2,67.7,29.09,SSE,153,0.0,0.0,75,0.00,,---,0.00,VWS V14.00,2013-07-21 07:20:00,
2013-07-21 02:23:00,76.2,67.7,29.09,SSE,153,0.0,0.0,75,0.00,,---,0.00,VWS V14.00,2013-07-21 07:23:00,
2013-07-21 02:29:00,76.0,67.5,29.06,SSE,153,0.0,0.0,75,0.00,,---,0.00,VWS V14.00,2013-07-21 07:29:00,
2013-07-21 02:31:00,76.0,67.5,29.06,SSE,153,0.0,0.0,75,0.00,,---,0.00,VWS V14.00,2013-07-21 07:31:00,
2013-07-21 02:32:00,76.0,67.5,29.06,SSE,153,0.0,0.0,75,0.00,,---,0.00,VWS V14.00,2013-07-21 07:32:00,
2013-07-21 02:35:00,75.8,67.3,29.06,SSE,153,0.0,0.0,75,0.00,,---,0.00,VWS V14.00,2013-07-21 07:35:00,
2013-07-21 02:38:00,75.8,67.3,29.06,SSE,153,0.0,0.0,75,0.00,,---,0.00,VWS V14.00,2013-07-21 07:38:00,
2013-07-21 02:44:00,75.8,67.3,29.06,SSE,153,0.0,0.0,75,0.00,,---,0.00,VWS V14.00,2013-07-21 07:44:00,
2013-07-21 02:46:00,75.6,67.5,29.06,SSE,153,0.0,0.0,76,0.00,,---,0.00,VWS V14.00,2013-07-21 07:46:00,
2013-07-21 02:47:00,75.6,67.5,29.06,SSE,153,0.0,0.0,76,0.00,,---,0.00,VWS V14.00,2013-07-21 07:47:00,
2013-07-21 02:53:00,75.6,67.5,29.06,SSE,153,0.0,0.0,76,0.00,,---,0.00,VWS V14.00,2013-07-21 07:53:00,
2013-07-21 02:59:00,75.6,67.5,29.09,SSE,153,0.0,0.0,76,0.00,,---,0.00,VWS V14.00,2013-07-21 07:59:00,
2013-07-21 03:02:00,75.6,67.5,29.09,SSE,153,0.0,0.0,76,0.00,,---,0.00,VWS V14.00,2013-07-21 08:02:00,
2013-07-21 03:05:00,75.6,67.5,29.09,SSE,153,0.0,0.0,76,0.00,,---,0.00,VWS V14.00,2013-07-21 08:05:00,
2013-07-21 03:08:00,75.8,67.7,29.09,SSE,153,2.7,3.6,76,0.00,,---,0.00,VWS V14.00,2013-07-21 08:08:00,
2013-07-21 03:11:00,75.8,67.3,29.06,South,178,0.0,4.0,75,0.00,,---,0.00,VWS V14.00,2013-07-21 08:11:00,
2013-07-21 03:14:00,75.8,67.7,29.06,South,178,0.0,4.0,76,0.00,,---,0.00,VWS V14.00,2013-07-21 08:14:00,
2013-07-21 03:16:00,75.6,67.5,29.06,South,178,0.0,4.0,76,0.00,,---,0.00,VWS V14.00,2013-07-21 08:16:00,
2013-07-21 03:17:00,75.6,67.5,29.06,South,178,0.0,0.0,76,0.00,,---,0.00,VWS V14.00,2013-07-21 08:17:00,
2013-07-21 03:23:00,75.6,67.5,29.06,South,178,0.0,0.0,76,0.00,,---,0.00,VWS V14.00,2013-07-21 08:23:00,
2013-07-21 03:26:00,75.6,67.5,29.06,South,178,0.0,0.0,76,0.00,,---,0.00,VWS V14.00,2013-07-21 08:26:00,
2013-07-21 03:32:00,75.4,67.7,29.06,South,178,0.0,0.0,77,0.00,,---,0.00,VWS V14.00,2013-07-21 08:32:00,
2013-07-21 03:35:00,75.4,67.7,29.06,South,178,0.0,0.0,77,0.00,,---,0.00,VWS V14.00,2013-07-21 08:35:00,
2013-07-21 03:38:00,75.4,67.7,29.06,South,178,0.0,0.0,77,0.00,,---,0.00,VWS V14.00,2013-07-21 08:38:00,
2013-07-21 03:41:00,75.4,67.7,29.09,South,178,0.0,0.0,77,0.00,,---,0.00,VWS V14.00,2013-07-21 08:41:00,
2013-07-21 03:44:00,75.4,67.7,29.09,South,178,0.0,0.0,77,0.00,,---,0.00,VWS V14.00,2013-07-21 08:44:00,
2013-07-21 03:46:00,75.4,67.7,29.09,South,178,0.0,0.0,77,0.00,,---,0.00,VWS V14.00,2013-07-21 08:46:00,
2013-07-21 03:53:00,75.4,67.3,29.09,South,176,0.0,3.1,76,0.00,,---,0.00,VWS V14.00,2013-07-21 08:53:00,
2013-07-21 03:59:00,75.4,67.3,29.06,SSE,165,0.0,4.0,76,0.00,,---,0.00,VWS V14.00,2013-07-21 08:59:00,
2013-07-21 04:01:00,75.4,67.3,29.06,SSE,165,0.0,4.0,76,0.00,,---,0.00,VWS V14.00,2013-07-21 09:01:00,
2013-07-21 04:05:00,75.4,67.3,29.06,South,169,0.0,3.6,76,0.00,,---,0.00,VWS V14.00,2013-07-21 09:05:00,
2013-07-21 04:08:00,75.4,67.3,29.06,South,169,0.0,3.6,76,0.00,,---,0.00,VWS V14.00,2013-07-21 09:08:00,
2013-07-21 04:11:00,75.4,67.3,29.06,SSE,166,0.0,3.6,76,0.00,,---,0.00,VWS V14.00,2013-07-21 09:11:00,
2013-07-21 04:14:00,75.4,67.3,29.06,SSE,166,0.0,3.6,76,0.00,,---,0.00,VWS V14.00,2013-07-21 09:14:00,
2013-07-21 04:16:00,75.3,67.2,29.06,SSE,167,3.1,3.6,76,0.00,,---,0.00,VWS V14.00,2013-07-21 09:16:00,
2013-07-21 04:17:00,75.3,67.2,29.06,SSE,167,2.7,3.1,76,0.00,,---,0.00,VWS V14.00,2013-07-21 09:17:00,
2013-07-21 04:20:00,75.3,67.2,29.06,SSE,150,2.7,3.6,76,0.00,,---,0.00,VWS V14.00,2013-07-21 09:20:00,
2013-07-21 04:26:00,75.3,67.2,29.06,SSE,166,0.0,3.6,76,0.00,,---,0.00,VWS V14.00,2013-07-21 09:26:00,
2013-07-21 04:29:00,75.3,67.2,29.06,SSE,166,0.0,3.6,76,0.00,,---,0.00,VWS V14.00,2013-07-21 09:29:00,
2013-07-21 04:31:00,75.3,67.2,29.06,South,178,2.7,3.6,76,0.00,,---,0.00,VWS V14.00,2013-07-21 09:31:00,
2013-07-21 04:32:00,75.1,67.0,29.06,South,178,0.0,3.6,76,0.00,,---,0.00,VWS V14.00,2013-07-21 09:32:00,
2013-07-21 04:35:00,75.1,67.0,29.06,South,178,0.0,3.6,76,0.00,,---,0.00,VWS V14.00,2013-07-21 09:35:00,
2013-07-21 04:38:00,75.1,67.0,29.06,SE,139,2.2,3.6,76,0.00,,---,0.00,VWS V14.00,2013-07-21 09:38:00,
2013-07-21 04:41:00,75.1,67.0,29.06,South,183,2.7,3.6,76,0.00,,---,0.00,VWS V14.00,2013-07-21 09:41:00,
2013-07-21 04:44:00,74.9,66.8,29.06,South,174,2.2,3.6,76,0.00,,---,0.00,VWS V14.00,2013-07-21 09:44:00,
2013-07-21 04:50:00,74.9,66.8,29.06,South,177,0.0,4.9,76,0.00,,---,0.00,VWS V14.00,2013-07-21 09:50:00,
2013-07-21 04:56:00,74.9,66.8,29.09,South,171,3.1,4.9,76,0.00,,---,0.00,VWS V14.00,2013-07-21 09:56:00,
2013-07-21 04:59:00,74.9,66.8,29.09,South,170,2.2,4.9,76,0.00,,---,0.00,VWS V14.00,2013-07-21 09:59:00,
2013-07-21 05:01:00,74.9,66.8,29.09,South,181,2.7,4.9,76,0.00,,---,0.00,VWS V14.00,2013-07-21 10:01:00,
2013-07-21 05:02:00,74.9,66.8,29.09,South,172,3.6,4.0,76,0.00,,---,0.00,VWS V14.00,2013-07-21 10:02:00,
2013-07-21 05:05:00,74.9,66.8,29.09,SSE,166,2.7,4.5,76,0.00,,---,0.00,VWS V14.00,2013-07-21 10:05:00,
2013-07-21 05:08:00,74.7,66.7,29.09,South,190,3.1,4.5,76,0.00,,---,0.00,VWS V14.00,2013-07-21 10:08:00,
2013-07-21 05:11:00,74.7,66.7,29.06,South,190,0.0,4.5,76,0.00,,---,0.00,VWS V14.00,2013-07-21 10:11:00,
2013-07-21 05:14:00,74.7,66.7,29.06,South,190,0.0,4.5,76,0.00,,---,0.00,VWS V14.00,2013-07-21 10:14:00,
2013-07-21 05:16:00,74.7,66.7,29.06,South,190,0.0,4.5,76,0.00,,---,0.00,VWS V14.00,2013-07-21 10:16:00,
2013-07-21 05:17:00,74.7,66.7,29.06,South,190,0.0,0.0,76,0.00,,---,0.00,VWS V14.00,2013-07-21 10:17:00,
2013-07-21 05:23:00,74.7,66.7,29.06,South,190,0.0,0.0,76,0.00,,---,0.00,VWS V14.00,2013-07-21 10:23:00,
2013-07-21 05:26:00,74.7,67.0,29.06,South,190,0.0,0.0,77,0.00,,---,0.00,VWS V14.00,2013-07-21 10:26:00,
2013-07-21 05:29:00,74.5,66.9,29.06,South,190,0.0,0.0,77,0.00,,---,0.00,VWS V14.00,2013-07-21 10:29:00,
2013-07-21 05:31:00,74.5,66.9,29.06,South,190,0.0,0.0,77,0.00,,---,0.00,VWS V14.00,2013-07-21 10:31:00,
2013-07-21 05:32:00,74.5,66.9,29.06,SSE,168,3.1,3.1,77,0.00,,---,0.00,VWS V14.00,2013-07-21 10:32:00,
2013-07-21 05:38:00,74.5,66.9,29.06,SSE,167,4.0,4.0,77,0.00,,---,0.00,VWS V14.00,2013-07-21 10:38:00,
2013-07-21 05:45:00,74.4,66.7,29.06,SSE,152,0.0,4.9,77,0.00,,---,0.00,VWS V14.00,2013-07-21 10:45:00,
2013-07-21 05:46:00,74.4,66.7,29.06,SSE,152,0.0,4.9,77,0.00,,---,0.00,VWS V14.00,2013-07-21 10:46:00,
2013-07-21 05:51:00,74.4,66.7,29.06,SSE,152,0.0,0.0,77,0.00,,---,0.00,VWS V14.00,2013-07-21 10:51:00,
2013-07-21 05:54:00,74.4,66.7,29.06,SSE,152,0.0,0.0,77,0.00,,---,0.00,VWS V14.00,2013-07-21 10:54:00,
2013-07-21 05:57:00,74.4,66.7,29.06,SSE,152,0.0,0.0,77,0.00,,---,0.00,VWS V14.00,2013-07-21 10:57:00,
2013-07-21 06:00:00,74.4,66.7,29.06,SSE,152,0.0,0.0,77,0.00,,---,0.00,VWS V14.00,2013-07-21 11:00:00,
2013-07-21 06:01:00,74.4,66.7,29.06,SSE,152,0.0,0.0,77,0.00,,---,0.00,VWS V14.00,2013-07-21 11:01:00,
2013-07-21 06:03:00,74.4,66.7,29.06,SSE,152,0.0,0.0,77,0.00,,---,0.00,VWS V14.00,2013-07-21 11:03:00,
2013-07-21 06:06:00,74.4,66.7,29.06,SSE,152,0.0,0.0,77,0.00,,---,0.00,VWS V14.00,2013-07-21 11:06:00,
2013-07-21 06:09:00,74.4,66.7,29.06,SSE,152,0.0,0.0,77,0.00,,---,0.00,VWS V14.00,2013-07-21 11:09:00,
2013-07-21 06:12:00,74.2,66.5,29.09,SSE,152,0.0,0.0,77,0.00,,---,0.00,VWS V14.00,2013-07-21 11:12:00,
2013-07-21 06:15:00,74.2,66.5,29.09,SSE,152,0.0,0.0,77,0.00,,---,0.00,VWS V14.00,2013-07-21 11:15:00,
2013-07-21 06:16:00,74.2,66.5,29.09,SSE,152,0.0,0.0,77,0.00,,---,0.00,VWS V14.00,2013-07-21 11:16:00,
2013-07-21 06:18:00,74.2,66.5,29.09,SSE,152,0.0,0.0,77,0.00,,---,0.00,VWS V14.00,2013-07-21 11:18:00,
2013-07-21 06:21:00,74.2,66.5,29.09,SSE,152,0.0,0.0,77,0.00,,---,0.00,VWS V14.00,2013-07-21 11:21:00,
2013-07-21 06:27:00,74.0,66.7,29.09,SSE,152,0.0,0.0,78,0.00,,---,0.00,VWS V14.00,2013-07-21 11:27:00,
2013-07-21 06:30:00,74.0,66.7,29.09,SSE,152,0.0,0.0,78,0.00,,---,0.00,VWS V14.00,2013-07-21 11:30:00,
2013-07-21 06:31:00,74.0,66.7,29.09,SSE,152,0.0,0.0,78,0.00,,---,0.00,VWS V14.00,2013-07-21 11:31:00,
2013-07-21 06:36:00,74.2,66.9,29.09,SSE,152,0.0,0.0,78,0.00,,---,0.00,VWS V14.00,2013-07-21 11:36:00,
2013-07-21 06:39:00,74.2,66.9,29.09,SSE,152,0.0,0.0,78,0.00,,---,0.00,VWS V14.00,2013-07-21 11:39:00,
2013-07-21 06:45:00,74.2,66.9,29.09,SSE,152,0.0,0.0,78,0.00,,---,0.00,VWS V14.00,2013-07-21 11:45:00,
2013-07-21 06:46:00,74.2,66.9,29.09,SSE,152,0.0,0.0,78,0.00,,---,0.00,VWS V14.00,2013-07-21 11:46:00,
2013-07-21 06:48:00,74.2,66.9,29.09,SSE,152,0.0,0.0,78,0.00,,---,0.00,VWS V14.00,2013-07-21 11:48:00,
2013-07-21 06:51:00,74.2,66.9,29.09,SSE,152,0.0,0.0,78,0.00,,---,0.00,VWS V14.00,2013-07-21 11:51:00,
2013-07-21 06:54:00,74.2,66.9,29.09,SSE,152,0.0,0.0,78,0.00,,---,0.00,VWS V14.00,2013-07-21 11:54:00,
2013-07-21 07:00:00,74.4,67.1,29.09,SSE,152,0.0,0.0,78,0.00,,---,0.00,VWS V14.00,2013-07-21 12:00:00,
2013-07-21 07:01:00,74.4,67.1,29.09,SSE,152,0.0,0.0,78,0.00,,---,0.00,VWS V14.00,2013-07-21 12:01:00,
2013-07-21 07:03:00,74.4,67.1,29.09,SSE,152,0.0,0.0,78,0.00,,---,0.00,VWS V14.00,2013-07-21 12:03:00,
2013-07-21 07:06:00,74.4,67.1,29.09,SSE,152,0.0,0.0,78,0.00,,---,0.00,VWS V14.00,2013-07-21 12:06:00,
2013-07-21 07:09:00,74.4,67.1,29.09,SSE,152,0.0,0.0,78,0.00,,---,0.00,VWS V14.00,2013-07-21 12:09:00,
2013-07-21 07:15:00,74.5,67.2,29.09,SSE,152,0.0,0.0,78,0.00,,---,0.00,VWS V14.00,2013-07-21 12:15:00,
2013-07-21 07:18:00,74.5,67.2,29.09,SSE,152,0.0,0.0,78,0.00,,---,0.00,VWS V14.00,2013-07-21 12:18:00,
2013-07-21 07:24:00,74.5,67.2,29.09,SSE,152,0.0,0.0,78,0.00,,---,0.00,VWS V14.00,2013-07-21 12:24:00,
2013-07-21 07:27:00,74.5,67.2,29.09,SSE,152,0.0,0.0,78,0.00,,---,0.00,VWS V14.00,2013-07-21 12:27:00,
2013-07-21 07:30:00,74.5,67.2,29.09,SSE,152,0.0,0.0,78,0.00,,---,0.00,VWS V14.00,2013-07-21 12:30:00,
2013-07-21 07:33:00,74.5,67.2,29.09,SSE,152,0.0,0.0,78,0.00,,---,0.00,VWS V14.00,2013-07-21 12:33:00,
2013-07-21 07:39:00,74.7,67.4,29.09,SSE,152,0.0,0.0,78,0.00,,---,0.00,VWS V14.00,2013-07-21 12:39:00,
2013-07-21 07:42:00,74.7,67.4,29.09,SSE,152,0.0,0.0,78,0.00,,---,0.00,VWS V14.00,2013-07-21 12:42:00,
2013-07-21 07:45:00,74.7,67.4,29.09,SSE,152,0.0,0.0,78,0.00,,---,0.00,VWS V14.00,2013-07-21 12:45:00,
2013-07-21 07:46:00,74.7,67.4,29.09,SSE,152,0.0,0.0,78,0.00,,---,0.00,VWS V14.00,2013-07-21 12:46:00,
2013-07-21 07:48:00,74.7,67.4,29.09,SSE,152,0.0,0.0,78,0.00,,---,0.00,VWS V14.00,2013-07-21 12:48:00,
2013-07-21 07:51:00,74.9,67.6,29.09,SSE,152,0.0,0.0,78,0.00,,---,0.00,VWS V14.00,2013-07-21 12:51:00,
2013-07-21 07:57:00,75.1,67.8,29.09,SSE,152,0.0,0.0,78,0.00,,---,0.00,VWS V14.00,2013-07-21 12:57:00,
2013-07-21 08:00:00,75.1,67.8,29.09,SSE,152,0.0,0.0,78,0.00,,---,0.00,VWS V14.00,2013-07-21 13:00:00,
2013-07-21 08:06:00,75.3,67.9,29.09,SSE,152,0.0,0.0,78,0.00,,---,0.00,VWS V14.00,2013-07-21 13:06:00,
2013-07-21 08:12:00,75.4,68.1,29.09,SSE,152,0.0,0.0,78,0.00,,---,0.00,VWS V14.00,2013-07-21 13:12:00,
2013-07-21 08:16:00,75.6,67.9,29.09,SSE,152,0.0,0.0,77,0.00,,---,0.00,VWS V14.00,2013-07-21 13:16:00,
2013-07-21 08:18:00,75.6,67.9,29.09,SSE,152,0.0,0.0,77,0.00,,---,0.00,VWS V14.00,2013-07-21 13:18:00,
2013-07-21 08:21:00,75.8,68.1,29.09,SSE,152,0.0,0.0,77,0.00,,---,0.00,VWS V14.00,2013-07-21 13:21:00,
2013-07-21 08:27:00,76.2,68.4,29.09,SSE,152,0.0,0.0,77,0.00,,---,0.00,VWS V14.00,2013-07-21 13:27:00,
2013-07-21 08:31:00,76.5,68.4,29.09,SSE,161,0.0,3.6,76,0.00,,---,0.00,VWS V14.00,2013-07-21 13:31:00,
2013-07-21 08:33:00,76.7,68.6,29.09,SSE,161,0.0,0.0,76,0.00,,---,0.00,VWS V14.00,2013-07-21 13:33:00,
2013-07-21 08:36:00,76.9,68.8,29.09,SSE,161,2.7,3.1,76,0.00,,---,0.00,VWS V14.00,2013-07-21 13:36:00,
2013-07-21 08:39:00,77.4,69.3,29.09,SSE,155,2.7,3.6,76,0.00,,---,0.00,VWS V14.00,2013-07-21 13:39:00,
2013-07-21 08:42:00,77.6,69.1,29.09,SSE,161,0.0,4.0,75,0.00,,---,0.00,VWS V14.00,2013-07-21 13:42:00,
2013-07-21 08:45:00,78.1,69.6,29.09,SSE,161,0.0,4.0,75,0.00,,---,0.00,VWS V14.00,2013-07-21 13:45:00,
2013-07-21 08:48:00,78.7,69.7,29.09,SSE,154,0.0,3.1,74,0.00,,---,0.00,VWS V14.00,2013-07-21 13:48:00,
2013-07-21 08:51:00,79.0,70.1,29.09,SSE,154,0.0,3.1,74,0.00,,---,0.00,VWS V14.00,2013-07-21 13:51:00,
2013-07-21 08:54:00,79.6,69.8,29.09,South,181,0.0,3.6,72,0.00,,---,0.00,VWS V14.00,2013-07-21 13:54:00,
2013-07-21 08:57:00,79.9,70.1,29.12,South,181,0.0,3.6,72,0.00,,---,0.00,VWS V14.00,2013-07-21 13:57:00,
2013-07-21 09:00:00,80.3,69.6,29.12,South,181,2.7,3.6,70,0.00,,---,0.00,VWS V14.00,2013-07-21 14:00:00,
2013-07-21 09:01:00,80.3,69.6,29.12,South,181,2.2,3.6,70,0.00,,---,0.00,VWS V14.00,2013-07-21 14:01:00,
2013-07-21 09:03:00,80.7,70.0,29.12,South,181,0.0,2.2,70,0.00,,---,0.00,VWS V14.00,2013-07-21 14:03:00,
2013-07-21 09:06:00,81.0,69.9,29.12,South,181,0.0,3.1,69,0.00,,---,0.00,VWS V14.00,2013-07-21 14:06:00,
2013-07-21 09:09:00,81.4,69.8,29.12,South,181,0.0,3.6,68,0.00,,---,0.00,VWS V14.00,2013-07-21 14:09:00,
2013-07-21 09:12:00,81.9,70.3,29.09,South,181,0.0,3.6,68,0.00,,---,0.00,VWS V14.00,2013-07-21 14:12:00,
2013-07-21 09:15:00,82.5,70.4,29.09,South,181,0.0,3.6,67,0.00,,---,0.00,VWS V14.00,2013-07-21 14:15:00,
2013-07-21 09:16:00,82.5,70.4,29.09,South,181,0.0,3.6,67,0.00,,---,0.00,VWS V14.00,2013-07-21 14:16:00,
2013-07-21 09:18:00,83.0,70.5,29.09,South,181,0.0,0.0,66,0.00,,---,0.00,VWS V14.00,2013-07-21 14:18:00,
2013-07-21 09:21:00,83.5,70.5,29.09,South,181,0.0,0.0,65,0.00,,---,0.00,VWS V14.00,2013-07-21 14:21:00,
2013-07-21 09:24:00,84.1,71.1,29.09,South,181,0.0,0.0,65,0.00,,---,0.00,VWS V14.00,2013-07-21 14:24:00,
2013-07-21 09:30:00,85.0,71.0,29.09,South,188,2.7,3.6,63,0.00,,---,0.00,VWS V14.00,2013-07-21 14:30:00,
2013-07-21 09:33:00,85.7,71.7,29.09,SSE,162,2.2,3.6,63,0.00,,---,0.00,VWS V14.00,2013-07-21 14:33:00,
2013-07-21 09:36:00,86.1,71.5,29.09,South,178,4.0,4.0,62,0.00,,---,0.00,VWS V14.00,2013-07-21 14:36:00,
2013-07-21 09:39:00,86.4,71.4,29.09,SSE,164,3.1,4.9,61,0.00,,---,0.00,VWS V14.00,2013-07-21 14:39:00,
2013-07-21 09:45:00,87.1,71.6,29.09,SSE,158,4.0,4.9,60,0.00,,---,0.00,VWS V14.00,2013-07-21 14:45:00,
2013-07-21 09:46:00,87.1,71.6,29.09,SSE,158,2.2,4.9,60,0.00,,---,0.00,VWS V14.00,2013-07-21 14:46:00,
2013-07-21 09:48:00,87.5,71.4,29.09,SSE,166,0.0,2.7,59,0.00,,---,0.00,VWS V14.00,2013-07-21 14:48:00,
2013-07-21 09:51:00,87.7,71.1,29.09,South,188,0.0,3.6,58,0.00,,---,0.00,VWS V14.00,2013-07-21 14:51:00,
2013-07-21 09:54:00,87.9,71.2,29.09,SSE,168,2.7,4.0,58,0.00,,---,0.00,VWS V14.00,2013-07-21 14:54:00,
2013-07-21 09:57:00,88.2,71.6,29.09,South,171,2.7,4.0,58,0.00,,---,0.00,VWS V14.00,2013-07-21 14:57:00,
2013-07-21 10:00:00,88.4,71.2,29.09,South,170,0.0,4.0,57,0.00,,---,0.00,VWS V14.00,2013-07-21 15:00:00,
2013-07-21 10:01:00,88.4,71.2,29.09,South,170,0.0,4.0,57,0.00,,---,0.00,VWS V14.00,2013-07-21 15:01:00,
2013-07-21 10:03:00,88.6,70.9,29.09,South,170,0.0,3.1,56,0.00,,---,0.00,VWS V14.00,2013-07-21 15:03:00,
2013-07-21 10:06:00,88.6,70.4,29.09,South,170,0.0,3.1,55,0.00,,---,0.00,VWS V14.00,2013-07-21 15:06:00,
2013-07-21 10:09:00,88.6,70.4,29.09,South,170,0.0,3.1,55,0.00,,---,0.00,VWS V14.00,2013-07-21 15:09:00,
2013-07-21 10:12:00,88.8,70.5,29.09,South,170,0.0,3.1,55,0.00,,---,0.00,VWS V14.00,2013-07-21 15:12:00,
2013-07-21 10:15:00,88.9,70.2,29.09,South,171,0.0,3.1,54,0.00,,---,0.00,VWS V14.00,2013-07-21 15:15:00,
2013-07-21 10:18:00,89.1,70.3,29.09,South,171,0.0,0.0,54,0.00,,---,0.00,VWS V14.00,2013-07-21 15:18:00,
2013-07-21 10:21:00,89.5,70.7,29.09,South,171,0.0,0.0,54,0.00,,---,0.00,VWS V14.00,2013-07-21 15:21:00,
2013-07-21 10:24:00,89.8,71.0,29.09,South,171,0.0,2.7,54,0.00,,---,0.00,VWS V14.00,2013-07-21 15:24:00,
2013-07-21 10:30:00,90.4,70.9,29.09,SSE,164,3.1,3.6,53,0.00,,---,0.00,VWS V14.00,2013-07-21 15:30:00,
2013-07-21 10:31:00,90.4,70.4,29.09,South,189,3.6,3.6,52,0.00,,---,0.00,VWS V14.00,2013-07-21 15:31:00,
2013-07-21 10:33:00,90.6,70.5,29.09,SSE,159,3.6,4.0,52,0.00,,---,0.00,VWS V14.00,2013-07-21 15:33:00,
2013-07-21 10:36:00,90.7,70.7,29.09,SSE,151,0.0,4.0,52,0.00,,---,0.00,VWS V14.00,2013-07-21 15:36:00,
2013-07-21 10:39:00,91.3,70.1,29.09,SE,144,3.6,4.0,50,0.00,,---,0.00,VWS V14.00,2013-07-21 15:39:00,
2013-07-21 10:42:00,91.5,70.2,29.09,South,183,3.1,4.9,50,0.00,,---,0.00,VWS V14.00,2013-07-21 15:42:00,
2013-07-21 10:45:00,91.8,70.6,29.09,SE,137,3.1,4.9,50,0.00,,---,0.00,VWS V14.00,2013-07-21 15:45:00,
2013-07-21 10:48:00,92.4,70.4,29.09,South,186,0.0,4.0,49,0.00,,---,0.00,VWS V14.00,2013-07-21 15:48:00,
2013-07-21 10:51:00,92.7,70.8,29.09,South,186,0.0,4.0,49,0.00,,---,0.00,VWS V14.00,2013-07-21 15:51:00,
2013-07-21 10:57:00,93.4,70.2,29.09,SSE,163,0.0,4.0,47,0.00,,---,0.00,VWS V14.00,2013-07-21 15:57:00,
2013-07-21 11:00:00,93.4,70.2,29.09,SSE,163,0.0,4.0,47,0.00,,---,0.00,VWS V14.00,2013-07-21 16:00:00,
2013-07-21 11:03:00,93.4,70.2,29.09,SSE,163,0.0,0.0,47,0.00,,---,0.00,VWS V14.00,2013-07-21 16:03:00,
2013-07-21 11:09:00,93.8,69.9,29.09,SSE,156,0.0,4.0,46,0.00,,---,0.00,VWS V14.00,2013-07-21 16:09:00,
2013-07-21 11:12:00,94.0,70.1,29.09,South,184,0.0,4.9,46,0.00,,---,0.00,VWS V14.00,2013-07-21 16:12:00,
2013-07-21 11:15:00,94.0,70.1,29.09,South,184,0.0,4.9,46,0.00,,---,0.00,VWS V14.00,2013-07-21 16:15:00,
2013-07-21 11:16:00,94.0,69.4,29.09,South,184,0.0,4.9,45,0.00,,---,0.00,VWS V14.00,2013-07-21 16:16:00,
2013-07-21 11:21:00,94.0,70.1,29.09,South,184,0.0,0.0,46,0.00,,---,0.00,VWS V14.00,2013-07-21 16:21:00,
2013-07-21 11:25:00,94.2,70.2,29.09,NNW,348,3.6,3.6,46,0.00,,---,0.00,VWS V14.00,2013-07-21 16:25:00,
2013-07-21 11:28:00,94.2,70.2,29.09,North,353,0.0,3.6,46,0.00,,---,0.00,VWS V14.00,2013-07-21 16:28:00,
2013-07-21 11:34:00,94.5,70.6,29.09,NNW,338,0.0,2.2,46,0.00,,---,0.00,VWS V14.00,2013-07-21 16:34:00,
2013-07-21 11:37:00,94.7,70.7,29.09,NNW,340,0.0,3.6,46,0.00,,---,0.00,VWS V14.00,2013-07-21 16:37:00,
2013-07-21 11:40:00,94.7,70.7,29.09,NNW,342,0.0,3.6,46,0.00,,---,0.00,VWS V14.00,2013-07-21 16:40:00,
2013-07-21 11:43:00,94.9,70.9,29.09,NNW,333,0.0,3.6,46,0.00,,---,0.00,VWS V14.00,2013-07-21 16:43:00,
2013-07-21 11:46:00,95.2,71.2,29.09,NNE,22,0.0,3.6,46,0.00,,---,0.00,VWS V14.00,2013-07-21 16:46:00,
2013-07-21 11:49:00,95.4,71.4,29.09,South,176,0.0,2.7,46,0.00,,---,0.00,VWS V14.00,2013-07-21 16:49:00,
2013-07-21 11:55:00,95.6,70.9,29.09,South,176,0.0,2.7,45,0.00,,---,0.00,VWS V14.00,2013-07-21 16:55:00,
2013-07-21 11:58:00,95.8,70.4,29.09,South,176,2.2,2.7,44,0.00,,---,0.00,VWS V14.00,2013-07-21 16:58:00,
2013-07-21 12:01:00,95.8,70.4,29.09,South,176,2.2,2.7,44,0.00,,---,0.00,VWS V14.00,2013-07-21 17:01:00,
2013-07-21 12:07:00,96.0,70.6,29.09,South,179,0.0,3.1,44,0.00,,---,0.00,VWS V14.00,2013-07-21 17:07:00,
2013-07-21 12:10:00,96.0,70.6,29.09,South,179,0.0,3.1,44,0.00,,---,0.00,VWS V14.00,2013-07-21 17:10:00,
2013-07-21 12:13:00,96.0,70.6,29.06,South,179,0.0,3.1,44,0.00,,---,0.00,VWS V14.00,2013-07-21 17:13:00,
2013-07-21 12:16:00,96.0,69.9,29.06,South,179,2.7,3.1,43,0.00,,---,0.00,VWS V14.00,2013-07-21 17:16:00,
2013-07-21 12:22:00,96.1,70.0,29.06,South,170,2.7,4.0,43,0.00,,---,0.00,VWS V14.00,2013-07-21 17:22:00,
2013-07-21 12:25:00,96.1,70.0,29.06,South,170,2.2,4.0,43,0.00,,---,0.00,VWS V14.00,2013-07-21 17:25:00,
2013-07-21 12:28:00,96.1,70.0,29.09,South,170,0.0,4.0,43,0.00,,---,0.00,VWS V14.00,2013-07-21 17:28:00,
2013-07-21 12:31:00,96.1,70.0,29.09,South,170,0.0,4.0,43,0.00,,---,0.00,VWS V14.00,2013-07-21 17:31:00,
2013-07-21 12:34:00,96.1,70.0,29.09,South,190,2.2,2.7,43,0.00,,---,0.00,VWS V14.00,2013-07-21 17:34:00,
2013-07-21 12:37:00,96.3,70.2,29.09,SSE,154,0.0,3.6,43,0.00,,---,0.00,VWS V14.00,2013-07-21 17:37:00,
2013-07-21 12:40:00,96.3,69.5,29.09,SSE,154,0.0,3.6,42,0.00,,---,0.00,VWS V14.00,2013-07-21 17:40:00,
2013-07-21 12:43:00,96.3,69.5,29.06,SSE,154,0.0,3.6,42,0.00,,---,0.00,VWS V14.00,2013-07-21 17:43:00,
2013-07-21 12:46:00,96.3,69.5,29.06,SSE,154,0.0,3.6,42,0.00,,---,0.00,VWS V14.00,2013-07-21 17:46:00,
2013-07-21 12:52:00,96.5,69.7,29.06,SSW,195,0.0,4.0,42,0.00,,---,0.00,VWS V14.00,2013-07-21 17:52:00,
2013-07-21 12:55:00,96.5,69.7,29.06,SSW,195,0.0,4.0,42,0.00,,---,0.00,VWS V14.00,2013-07-21 17:55:00,
2013-07-21 12:58:00,96.5,69.7,29.06,SSW,195,0.0,4.0,42,0.00,,---,0.00,VWS V14.00,2013-07-21 17:58:00,
2013-07-21 13:01:00,96.5,69.7,29.06,SSW,195,0.0,4.0,42,0.00,,---,0.00,VWS V14.00,2013-07-21 18:01:00,
2013-07-21 13:04:00,96.7,69.8,29.06,South,180,0.0,2.7,42,0.00,,---,0.00,VWS V14.00,2013-07-21 18:04:00,
2013-07-21 13:07:00,96.7,69.8,29.06,South,180,0.0,2.7,42,0.00,,---,0.00,VWS V14.00,2013-07-21 18:07:00,
2013-07-21 13:10:00,96.5,69.7,29.06,South,180,2.7,2.7,42,0.00,,---,0.00,VWS V14.00,2013-07-21 18:10:00,
2013-07-21 13:16:00,96.5,69.0,29.06,South,180,0.0,2.7,41,0.00,,---,0.00,VWS V14.00,2013-07-21 18:16:00,
2013-07-21 13:19:00,96.3,69.5,29.06,South,180,0.0,0.0,42,0.00,,---,0.00,VWS V14.00,2013-07-21 18:19:00,
2013-07-21 13:25:00,96.0,69.2,29.06,South,180,0.0,0.0,42,0.00,,---,0.00,VWS V14.00,2013-07-21 18:25:00,
2013-07-21 13:31:00,95.4,69.4,29.06,NE,46,0.0,4.0,43,0.00,,---,0.00,VWS V14.00,2013-07-21 18:31:00,
2013-07-21 13:34:00,95.1,68.4,29.06,WSW,246,7.2,7.2,42,0.00,,---,0.00,VWS V14.00,2013-07-21 18:34:00,
2013-07-21 13:37:00,94.3,68.4,29.06,South,185,3.6,7.2,43,0.12,,---,0.12,VWS V14.00,2013-07-21 18:37:00,
2013-07-21 13:40:00,93.4,67.6,29.06,SW,215,3.6,7.2,43,0.20,,---,0.20,VWS V14.00,2013-07-21 18:40:00,
2013-07-21 13:46:00,92.0,66.3,29.09,SSW,195,0.0,7.2,43,0.28,,---,0.28,VWS V14.00,2013-07-21 18:46:00,
2013-07-21 13:52:00,90.4,65.5,29.09,South,189,4.0,4.0,44,0.35,,---,0.35,VWS V14.00,2013-07-21 18:52:00,
2013-07-21 13:55:00,89.8,65.7,29.09,South,171,2.2,4.0,45,0.35,,---,0.35,VWS V14.00,2013-07-21 18:55:00,
2013-07-21 13:58:00,89.5,65.3,29.09,South,171,0.0,4.0,45,0.35,,---,0.35,VWS V14.00,2013-07-21 18:58:00,
2013-07-21 14:01:00,88.8,65.3,29.09,South,171,0.0,4.0,46,0.35,,---,0.35,VWS V14.00,2013-07-21 19:01:00,
2013-07-21 14:04:00,88.2,65.5,29.09,South,170,2.7,2.7,47,0.35,,---,0.35,VWS V14.00,2013-07-21 19:04:00,
2013-07-21 14:10:00,87.7,65.0,29.09,South,187,0.0,3.6,47,0.35,,---,0.35,VWS V14.00,2013-07-21 19:10:00,
2013-07-21 14:16:00,87.0,64.9,29.09,South,187,0.0,3.6,48,0.35,,---,0.35,VWS V14.00,2013-07-21 19:16:00,
2013-07-21 14:19:00,86.6,65.2,29.09,SSW,193,2.7,3.6,49,0.35,,---,0.35,VWS V14.00,2013-07-21 19:19:00,
2013-07-21 14:25:00,86.1,65.3,29.09,SSE,165,3.1,3.6,50,0.35,,---,0.35,VWS V14.00,2013-07-21 19:25:00,
2013-07-21 14:28:00,85.9,65.1,29.06,South,169,4.9,5.8,50,0.35,,---,0.35,VWS V14.00,2013-07-21 19:28:00,
2013-07-21 14:31:00,85.5,65.3,29.06,SSE,151,5.8,5.8,51,0.35,,---,0.35,VWS V14.00,2013-07-21 19:31:00,
2013-07-21 14:34:00,85.3,65.2,29.06,SSE,154,3.6,5.8,51,0.35,,---,0.35,VWS V14.00,2013-07-21 19:34:00,
2013-07-21 14:37:00,85.0,64.8,29.06,SSE,167,3.1,5.8,51,0.35,,---,0.35,VWS V14.00,2013-07-21 19:37:00,
2013-07-21 14:40:00,84.6,65.1,29.06,South,187,5.4,5.8,52,0.35,,---,0.35,VWS V14.00,2013-07-21 19:40:00,
2013-07-21 14:43:00,84.4,65.4,29.06,SSE,166,4.0,6.3,53,0.35,,---,0.35,VWS V14.00,2013-07-21 19:43:00,
2013-07-21 14:46:00,84.3,65.8,29.06,SSE,154,7.2,7.2,54,0.35,,---,0.35,VWS V14.00,2013-07-21 19:46:00,
2013-07-21 14:49:00,84.1,65.7,29.06,SSE,165,6.3,7.2,54,0.08,,---,0.35,VWS V14.00,2013-07-21 19:49:00,
2013-07-21 14:52:00,83.9,66.0,29.06,ESE,119,4.0,7.2,55,0.08,,---,0.35,VWS V14.00,2013-07-21 19:52:00,
2013-07-21 14:58:00,83.7,66.4,29.06,SSE,159,3.6,7.2,56,0.08,,---,0.35,VWS V14.00,2013-07-21 19:58:00,
2013-07-21 15:01:00,83.7,66.9,29.06,South,171,3.6,7.2,57,0.08,,---,0.35,VWS V14.00,2013-07-21 20:01:00,
2013-07-21 15:04:00,83.7,66.9,29.06,South,187,4.0,5.8,57,0.00,,---,0.35,VWS V14.00,2013-07-21 20:04:00,
2013-07-21 15:07:00,83.5,66.7,29.06,SSE,164,4.9,6.3,57,0.00,,---,0.35,VWS V14.00,2013-07-21 20:07:00,
2013-07-21 15:10:00,83.5,66.7,29.06,South,169,5.4,6.3,57,0.00,,---,0.35,VWS V14.00,2013-07-21 20:10:00,
2013-07-21 15:16:00,83.5,67.2,29.06,SSE,154,4.0,6.3,58,0.00,,---,0.35,VWS V14.00,2013-07-21 20:16:00,
2013-07-21 15:22:00,83.5,67.2,29.06,SSE,162,3.6,5.8,58,0.00,,---,0.35,VWS V14.00,2013-07-21 20:22:00,
2013-07-21 15:25:00,83.7,67.4,29.06,South,177,2.2,5.8,58,0.00,,---,0.35,VWS V14.00,2013-07-21 20:25:00,
2013-07-21 15:28:00,83.7,67.4,29.03,SSE,162,3.6,5.8,58,0.00,,---,0.35,VWS V14.00,2013-07-21 20:28:00,
2013-07-21 15:31:00,83.7,67.9,29.03,South,169,2.7,5.8,59,0.00,,---,0.35,VWS V14.00,2013-07-21 20:31:00,
2013-07-21 15:34:00,83.9,68.1,29.03,SSE,166,3.1,3.6,59,0.00,,---,0.35,VWS V14.00,2013-07-21 20:34:00,
2013-07-21 15:37:00,83.9,68.1,29.03,SSE,159,2.7,5.8,59,0.00,,---,0.35,VWS V14.00,2013-07-21 20:37:00,
2013-07-21 15:40:00,84.1,68.2,29.03,SSE,167,2.7,5.8,59,0.00,,---,0.35,VWS V14.00,2013-07-21 20:40:00,
2013-07-21 15:43:00,84.1,68.2,29.06,SSE,165,2.7,5.8,59,0.00,,---,0.35,VWS V14.00,2013-07-21 20:43:00,
2013-07-21 15:46:00,84.1,68.2,29.06,SE,146,3.6,3.6,59,0.00,,---,0.35,VWS V14.00,2013-07-21 20:46:00,
2013-07-21 15:52:00,84.1,68.2,29.06,South,186,0.0,4.0,59,0.00,,---,0.35,VWS V14.00,2013-07-21 20:52:00,
2013-07-21 15:58:00,84.1,68.2,29.03,South,186,0.0,4.0,59,0.00,,---,0.35,VWS V14.00,2013-07-21 20:58:00,
2013-07-21 16:01:00,84.1,68.2,29.03,South,186,0.0,0.0,59,0.00,,---,0.35,VWS V14.00,2013-07-21 21:01:00,
2013-07-21 16:04:00,84.1,68.2,29.03,South,186,0.0,0.0,59,0.00,,---,0.35,VWS V14.00,2013-07-21 21:04:00,
2013-07-21 16:10:00,84.1,68.7,29.03,South,186,0.0,0.0,60,0.00,,---,0.35,VWS V14.00,2013-07-21 21:10:00,
2013-07-21 16:13:00,84.1,68.7,29.06,South,186,0.0,0.0,60,0.00,,---,0.35,VWS V14.00,2013-07-21 21:13:00,
2013-07-21 16:16:00,84.1,68.7,29.06,South,186,0.0,0.0,60,0.00,,---,0.35,VWS V14.00,2013-07-21 21:16:00,
2013-07-21 16:22:00,83.9,68.5,29.06,South,186,0.0,0.0,60,0.00,,---,0.35,VWS V14.00,2013-07-21 21:22:00,
2013-07-21 16:25:00,84.1,68.7,29.06,South,186,0.0,0.0,60,0.00,,---,0.35,VWS V14.00,2013-07-21 21:25:00,
2013-07-21 16:28:00,84.1,68.7,29.06,South,186,0.0,0.0,60,0.00,,---,0.35,VWS V14.00,2013-07-21 21:28:00,
2013-07-21 16:31:00,84.1,69.2,29.06,South,186,0.0,0.0,61,0.00,,---,0.35,VWS V14.00,2013-07-21 21:31:00,
2013-07-21 16:34:00,84.1,68.7,29.06,South,186,0.0,2.7,60,0.00,,---,0.35,VWS V14.00,2013-07-21 21:34:00,
2013-07-21 16:37:00,84.1,69.2,29.06,South,186,0.0,2.7,61,0.00,,---,0.35,VWS V14.00,2013-07-21 21:37:00,
2013-07-21 16:40:00,84.1,69.2,29.06,South,186,0.0,2.7,61,0.00,,---,0.35,VWS V14.00,2013-07-21 21:40:00,
2013-07-21 16:43:00,84.1,69.2,29.03,South,186,0.0,2.7,61,0.00,,---,0.35,VWS V14.00,2013-07-21 21:43:00,
2013-07-21 16:46:00,84.1,69.2,29.03,SSE,167,3.1,3.6,61,0.00,,---,0.35,VWS V14.00,2013-07-21 21:46:00,
2013-07-21 16:49:00,84.1,69.2,29.03,SSW,193,0.0,4.0,61,0.00,,---,0.35,VWS V14.00,2013-07-21 21:49:00,
2013-07-21 16:52:00,84.1,69.2,29.03,SSW,193,0.0,4.0,61,0.00,,---,0.35,VWS V14.00,2013-07-21 21:52:00,
2013-07-21 16:58:00,84.1,69.2,29.03,SSW,193,2.2,4.0,61,0.00,,---,0.35,VWS V14.00,2013-07-21 21:58:00,
2013-07-21 17:01:00,84.3,69.4,29.03,SSW,193,2.2,2.2,61,0.00,,---,0.35,VWS V14.00,2013-07-21 22:01:00,
2013-07-21 17:04:00,84.3,68.9,29.03,SSW,193,0.0,2.2,60,0.00,,---,0.35,VWS V14.00,2013-07-21 22:04:00,
2013-07-21 17:08:00,84.3,68.9,29.03,SSW,193,0.0,2.2,60,0.00,,---,0.35,VWS V14.00,2013-07-21 22:08:00,
2013-07-21 17:14:00,84.1,68.7,29.03,SSW,193,0.0,2.2,60,0.00,,---,0.35,VWS V14.00,2013-07-21 22:14:00,
2013-07-21 17:16:00,84.1,68.7,29.03,SSW,193,0.0,2.2,60,0.00,,---,0.35,VWS V14.00,2013-07-21 22:16:00,
2013-07-21 17:17:00,84.1,68.7,29.03,SSW,193,0.0,0.0,60,0.00,,---,0.35,VWS V14.00,2013-07-21 22:17:00,
2013-07-21 17:23:00,84.1,68.7,29.03,SSE,166,3.6,4.0,60,0.00,,---,0.35,VWS V14.00,2013-07-21 22:23:00,
2013-07-21 17:26:00,84.1,68.7,29.03,SSE,166,4.9,4.9,60,0.00,,---,0.35,VWS V14.00,2013-07-21 22:26:00,
2013-07-21 17:29:00,84.1,68.7,29.03,SSE,161,3.1,5.8,60,0.00,,---,0.35,VWS V14.00,2013-07-21 22:29:00,
2013-07-21 17:31:00,84.1,68.7,29.03,SSE,154,3.6,5.8,60,0.00,,---,0.35,VWS V14.00,2013-07-21 22:31:00,
2013-07-21 17:32:00,84.1,68.7,29.03,SSE,168,4.0,4.0,60,0.00,,---,0.35,VWS V14.00,2013-07-21 22:32:00,
2013-07-21 17:35:00,84.1,69.2,29.03,SSE,165,4.0,5.4,61,0.00,,---,0.35,VWS V14.00,2013-07-21 22:35:00,
2013-07-21 17:38:00,83.9,69.0,29.03,SSE,165,4.0,6.3,61,0.00,,---,0.35,VWS V14.00,2013-07-21 22:38:00,
2013-07-21 17:41:00,83.7,68.8,29.03,SSE,159,4.9,6.3,61,0.00,,---,0.35,VWS V14.00,2013-07-21 22:41:00,
2013-07-21 17:44:00,83.5,68.7,29.03,SSE,168,5.4,6.3,61,0.00,,---,0.35,VWS V14.00,2013-07-21 22:44:00,
2013-07-21 17:46:00,83.5,68.7,29.03,SSE,167,3.6,6.3,61,0.00,,---,0.35,VWS V14.00,2013-07-21 22:46:00,
2013-07-21 17:50:00,83.4,69.0,29.03,SE,141,3.6,5.8,62,0.00,,---,0.35,VWS V14.00,2013-07-21 22:50:00,
2013-07-21 17:53:00,83.2,69.3,29.03,SSE,152,3.6,6.3,63,0.00,,---,0.35,VWS V14.00,2013-07-21 22:53:00,
2013-07-21 17:56:00,83.0,69.1,29.03,South,175,6.3,6.3,63,0.00,,---,0.35,VWS V14.00,2013-07-21 22:56:00,
2013-07-21 17:59:00,82.8,68.9,29.00,SSE,160,3.6,7.6,63,0.00,,---,0.35,VWS V14.00,2013-07-21 22:59:00,
2013-07-21 18:01:00,82.8,69.4,29.00,SE,134,6.3,7.6,64,0.00,,---,0.35,VWS V14.00,2013-07-21 23:01:00,
2013-07-21 18:02:00,82.6,69.2,29.00,SSE,162,3.6,6.3,64,0.00,,---,0.35,VWS V14.00,2013-07-21 23:02:00,
2013-07-21 18:08:00,82.5,69.1,29.00,SSE,162,3.1,8.1,64,0.00,,---,0.35,VWS V14.00,2013-07-21 23:08:00,
2013-07-21 18:11:00,82.3,68.9,29.00,SSE,152,3.6,8.1,64,0.00,,---,0.35,VWS V14.00,2013-07-21 23:11:00,
2013-07-21 18:14:00,82.1,69.2,29.00,South,179,3.1,8.1,65,0.00,,---,0.35,VWS V14.00,2013-07-21 23:14:00,
2013-07-21 18:20:00,81.9,69.0,29.00,SSE,158,3.6,5.8,65,0.00,,---,0.35,VWS V14.00,2013-07-21 23:20:00,
2013-07-21 18:23:00,81.9,69.0,29.00,South,175,4.0,5.8,65,0.00,,---,0.35,VWS V14.00,2013-07-21 23:23:00,
2013-07-21 18:26:00,81.7,68.8,29.00,SSE,164,5.4,5.8,65,0.00,,---,0.35,VWS V14.00,2013-07-21 23:26:00,
2013-07-21 18:29:00,81.7,68.8,29.03,South,181,7.6,7.6,65,0.00,,---,0.35,VWS V14.00,2013-07-21 23:29:00,
2013-07-21 18:31:00,81.7,69.3,29.03,SSE,160,5.4,7.6,66,0.00,,---,0.35,VWS V14.00,2013-07-21 23:31:00,
2013-07-21 18:32:00,81.6,69.1,29.03,South,180,5.8,6.3,66,0.00,,---,0.35,VWS V14.00,2013-07-21 23:32:00,
2013-07-21 18:38:00,81.4,68.9,29.03,South,174,6.3,7.6,66,0.00,,---,0.35,VWS V14.00,2013-07-21 23:38:00,
2013-07-21 18:41:00,81.4,68.9,29.03,SSE,168,5.4,7.6,66,0.00,,---,0.35,VWS V14.00,2013-07-21 23:41:00,
2013-07-21 18:44:00,81.2,69.2,29.00,SSE,149,3.6,7.6,67,0.00,,---,0.35,VWS V14.00,2013-07-21 23:44:00,
2013-07-21 18:47:00,81.2,69.2,29.00,SSE,168,6.3,6.3,67,0.00,,---,0.35,VWS V14.00,2013-07-21 23:47:00,
2013-07-21 18:50:00,81.2,69.2,29.00,SSE,147,5.8,8.1,67,0.00,,---,0.35,VWS V14.00,2013-07-21 23:50:00,
2013-07-21 18:56:00,81.0,69.0,29.00,SSW,196,5.8,8.1,67,0.00,,---,0.35,VWS V14.00,2013-07-21 23:56:00,
2013-07-21 19:01:00,81.0,69.5,29.00,SSE,165,6.3,8.1,68,0.00,,---,0.35,VWS V14.00,2013-07-22 00:01:00,
2013-07-21 19:02:00,80.8,69.3,29.00,SSE,161,3.1,6.3,68,0.00,,---,0.35,VWS V14.00,2013-07-22 00:02:00,
2013-07-21 19:08:00,80.8,69.3,29.00,SSE,166,2.7,6.3,68,0.00,,---,0.35,VWS V14.00,2013-07-22 00:08:00,
2013-07-21 19:11:00,80.8,69.3,29.03,SSE,165,3.6,6.3,68,0.00,,---,0.35,VWS V14.00,2013-07-22 00:11:00,
2013-07-21 19:16:00,80.8,69.7,29.03,South,178,0.0,6.3,69,0.00,,---,0.35,VWS V14.00,2013-07-22 00:16:00,
2013-07-21 19:17:00,80.8,69.7,29.03,South,173,3.6,3.6,69,0.00,,---,0.35,VWS V14.00,2013-07-22 00:17:00,
2013-07-21 19:20:00,80.8,69.7,29.03,South,173,0.0,3.6,69,0.00,,---,0.35,VWS V14.00,2013-07-22 00:20:00,
2013-07-21 19:23:00,80.8,69.7,29.03,South,173,0.0,3.6,69,0.00,,---,0.35,VWS V14.00,2013-07-22 00:23:00,
2013-07-21 19:26:00,80.8,69.7,29.00,South,173,0.0,3.6,69,0.00,,---,0.35,VWS V14.00,2013-07-22 00:26:00,
2013-07-21 19:32:00,80.7,70.0,29.00,South,173,0.0,0.0,70,0.00,,---,0.35,VWS V14.00,2013-07-22 00:32:00,
2013-07-21 19:38:00,80.7,70.0,29.00,South,173,0.0,0.0,70,0.00,,---,0.35,VWS V14.00,2013-07-22 00:38:00,
2013-07-21 19:41:00,80.7,70.0,29.00,South,173,0.0,0.0,70,0.00,,---,0.35,VWS V14.00,2013-07-22 00:41:00,
2013-07-21 19:44:00,80.7,70.0,29.00,South,173,0.0,0.0,70,0.00,,---,0.35,VWS V14.00,2013-07-22 00:44:00,
2013-07-21 19:47:00,80.7,70.0,29.00,South,173,0.0,0.0,70,0.00,,---,0.35,VWS V14.00,2013-07-22 00:47:00,
2013-07-21 19:50:00,80.7,70.0,29.00,South,173,0.0,0.0,70,0.00,,---,0.35,VWS V14.00,2013-07-22 00:50:00,
2013-07-21 19:53:00,80.7,70.0,29.00,South,173,0.0,0.0,70,0.00,,---,0.35,VWS V14.00,2013-07-22 00:53:00,
2013-07-21 19:56:00,80.7,70.0,29.03,South,173,0.0,0.0,70,0.00,,---,0.35,VWS V14.00,2013-07-22 00:56:00,
2013-07-21 19:59:00,80.5,70.2,29.03,South,173,0.0,0.0,71,0.00,,---,0.35,VWS V14.00,2013-07-22 00:59:00,
2013-07-21 20:01:00,80.5,70.2,29.03,South,173,0.0,0.0,71,0.00,,---,0.35,VWS V14.00,2013-07-22 01:01:00,
2013-07-21 20:02:00,80.5,70.2,29.03,South,173,0.0,0.0,71,0.00,,---,0.35,VWS V14.00,2013-07-22 01:02:00,
2013-07-21 20:08:00,80.3,70.1,29.03,South,173,0.0,0.0,71,0.00,,---,0.35,VWS V14.00,2013-07-22 01:08:00,
2013-07-21 20:11:00,80.3,70.1,29.00,South,173,0.0,0.0,71,0.00,,---,0.35,VWS V14.00,2013-07-22 01:11:00,
2013-07-21 20:16:00,80.3,70.5,29.00,South,173,0.0,0.0,72,0.00,,---,0.35,VWS V14.00,2013-07-22 01:16:00,
2013-07-21 20:20:00,80.1,70.3,29.00,South,173,0.0,0.0,72,0.00,,---,0.35,VWS V14.00,2013-07-22 01:20:00,
2013-07-21 20:23:00,80.1,70.3,29.00,South,173,0.0,0.0,72,0.00,,---,0.35,VWS V14.00,2013-07-22 01:23:00,
2013-07-21 20:26:00,80.1,70.3,29.03,South,173,0.0,0.0,72,0.00,,---,0.35,VWS V14.00,2013-07-22 01:26:00,
2013-07-21 20:31:00,79.9,70.5,29.03,South,173,0.0,0.0,73,0.00,,---,0.35,VWS V14.00,2013-07-22 01:31:00,
2013-07-21 20:32:00,79.9,70.5,29.03,South,173,0.0,0.0,73,0.00,,---,0.35,VWS V14.00,2013-07-22 01:32:00,
2013-07-21 20:38:00,79.8,70.3,29.03,South,173,0.0,0.0,73,0.00,,---,0.35,VWS V14.00,2013-07-22 01:38:00,
2013-07-21 20:41:00,79.8,70.3,29.03,East,94,0.0,2.2,73,0.00,,---,0.35,VWS V14.00,2013-07-22 01:41:00,
2013-07-21 20:47:00,79.8,70.3,29.03,East,94,0.0,0.0,73,0.00,,---,0.35,VWS V14.00,2013-07-22 01:47:00,
2013-07-21 20:50:00,79.8,70.3,29.03,East,94,0.0,0.0,73,0.00,,---,0.35,VWS V14.00,2013-07-22 01:50:00,
2013-07-21 20:53:00,79.6,70.2,29.03,East,94,0.0,0.0,73,0.00,,---,0.35,VWS V14.00,2013-07-22 01:53:00,
2013-07-21 20:56:00,79.6,70.2,29.00,East,94,0.0,0.0,73,0.00,,---,0.35,VWS V14.00,2013-07-22 01:56:00,
2013-07-21 20:59:00,79.6,70.2,29.00,East,94,0.0,0.0,73,0.00,,---,0.35,VWS V14.00,2013-07-22 01:59:00,
2013-07-21 21:01:00,79.6,70.2,29.00,East,94,0.0,0.0,73,0.00,,---,0.35,VWS V14.00,2013-07-22 02:01:00,
2013-07-21 21:02:00,79.6,70.2,29.00,East,94,0.0,0.0,73,0.00,,---,0.35,VWS V14.00,2013-07-22 02:02:00,
2013-07-21 21:05:00,79.6,70.2,29.00,East,94,0.0,0.0,73,0.00,,---,0.35,VWS V14.00,2013-07-22 02:05:00,
2013-07-21 21:08:00,79.4,70.0,29.00,East,94,0.0,0.0,73,0.00,,---,0.35,VWS V14.00,2013-07-22 02:08:00,
2013-07-21 21:11:00,79.4,70.0,29.03,East,94,0.0,0.0,73,0.00,,---,0.35,VWS V14.00,2013-07-22 02:11:00,
2013-07-21 21:16:00,79.4,70.0,29.03,East,94,0.0,0.0,73,0.00,,---,0.35,VWS V14.00,2013-07-22 02:16:00,
2013-07-21 21:18:00,79.4,70.0,29.03,East,94,0.0,0.0,73,0.00,,---,0.35,VWS V14.00,2013-07-22 02:18:00,
2013-07-21 21:21:00,79.2,70.2,29.03,East,94,0.0,0.0,74,0.00,,---,0.35,VWS V14.00,2013-07-22 02:21:00,
2013-07-21 21:24:00,79.2,70.2,29.03,SSE,166,0.0,2.7,74,0.00,,---,0.35,VWS V14.00,2013-07-22 02:24:00,
2013-07-21 21:27:00,79.2,70.2,29.03,SSE,166,0.0,2.7,74,0.00,,---,0.35,VWS V14.00,2013-07-22 02:27:00,
2013-07-21 21:30:00,79.2,70.2,29.03,SSE,166,0.0,2.7,74,0.00,,---,0.35,VWS V14.00,2013-07-22 02:30:00,
2013-07-21 21:31:00,79.2,70.2,29.03,SSE,166,0.0,2.7,74,0.00,,---,0.35,VWS V14.00,2013-07-22 02:31:00,
2013-07-21 21:36:00,79.2,70.2,29.03,SSE,166,0.0,0.0,74,0.00,,---,0.35,VWS V14.00,2013-07-22 02:36:00,
2013-07-21 21:39:00,79.2,70.2,29.03,East,100,0.0,0.0,74,0.00,,---,0.35,VWS V14.00,2013-07-22 02:39:00,
2013-07-21 21:42:00,79.2,70.2,29.03,East,100,0.0,0.0,74,0.00,,---,0.35,VWS V14.00,2013-07-22 02:42:00,
2013-07-21 21:45:00,79.0,70.4,29.03,SE,127,0.0,0.0,75,0.00,,---,0.35,VWS V14.00,2013-07-22 02:45:00,
2013-07-21 21:46:00,79.0,70.4,29.03,SE,127,0.0,0.0,75,0.00,,---,0.35,VWS V14.00,2013-07-22 02:46:00,
2013-07-21 21:51:00,79.0,70.4,29.03,SE,127,0.0,0.0,75,0.00,,---,0.35,VWS V14.00,2013-07-22 02:51:00,
2013-07-21 21:54:00,79.0,70.4,29.03,SE,127,0.0,0.0,75,0.00,,---,0.35,VWS V14.00,2013-07-22 02:54:00,
2013-07-21 21:57:00,78.9,70.3,29.03,SE,127,0.0,0.0,75,0.00,,---,0.35,VWS V14.00,2013-07-22 02:57:00,
2013-07-21 22:00:00,78.9,70.3,29.03,SE,127,0.0,0.0,75,0.00,,---,0.35,VWS V14.00,2013-07-22 03:00:00,
2013-07-21 22:01:00,78.9,70.3,29.03,SE,127,0.0,0.0,75,0.00,,---,0.35,VWS V14.00,2013-07-22 03:01:00,
2013-07-21 22:03:00,78.9,70.3,29.03,SE,127,0.0,0.0,75,0.00,,---,0.35,VWS V14.00,2013-07-22 03:03:00,
2013-07-21 22:09:00,78.9,70.3,29.03,SE,127,0.0,0.0,75,0.00,,---,0.35,VWS V14.00,2013-07-22 03:09:00,
2013-07-21 22:12:00,78.9,70.3,29.03,SE,127,0.0,0.0,75,0.00,,---,0.35,VWS V14.00,2013-07-22 03:12:00,
2013-07-21 22:15:00,78.9,70.3,29.03,SE,127,0.0,0.0,75,0.00,,---,0.35,VWS V14.00,2013-07-22 03:15:00,
2013-07-21 22:16:00,78.9,70.3,29.03,SE,127,0.0,0.0,75,0.00,,---,0.35,VWS V14.00,2013-07-22 03:16:00,
2013-07-21 22:18:00,78.9,70.3,29.03,SE,127,0.0,0.0,75,0.00,,---,0.35,VWS V14.00,2013-07-22 03:18:00,
2013-07-21 22:21:00,78.7,70.1,29.03,SE,127,0.0,0.0,75,0.00,,---,0.35,VWS V14.00,2013-07-22 03:21:00,
2013-07-21 22:24:00,78.7,70.5,29.03,SE,127,0.0,0.0,76,0.00,,---,0.35,VWS V14.00,2013-07-22 03:24:00,
2013-07-21 22:27:00,78.7,70.5,29.03,SE,127,0.0,0.0,76,0.00,,---,0.35,VWS V14.00,2013-07-22 03:27:00,
2013-07-21 22:30:00,78.5,70.3,29.03,SE,127,0.0,0.0,76,0.00,,---,0.35,VWS V14.00,2013-07-22 03:30:00,
2013-07-21 22:31:00,78.5,70.3,29.03,SE,127,0.0,0.0,76,0.00,,---,0.35,VWS V14.00,2013-07-22 03:31:00,
2013-07-21 22:36:00,78.5,70.3,29.03,SE,127,0.0,0.0,76,0.00,,---,0.35,VWS V14.00,2013-07-22 03:36:00,
2013-07-21 22:39:00,78.5,70.3,29.03,SE,127,0.0,0.0,76,0.00,,---,0.35,VWS V14.00,2013-07-22 03:39:00,
2013-07-21 22:42:00,78.5,70.3,29.03,SE,127,0.0,0.0,76,0.00,,---,0.35,VWS V14.00,2013-07-22 03:42:00,
2013-07-21 22:45:00,78.3,70.1,29.03,SE,127,0.0,0.0,76,0.00,,---,0.35,VWS V14.00,2013-07-22 03:45:00,
2013-07-21 22:46:00,78.3,70.1,29.03,SE,127,0.0,0.0,76,0.00,,---,0.35,VWS V14.00,2013-07-22 03:46:00,
2013-07-21 22:48:00,78.3,70.1,29.03,SE,127,0.0,0.0,76,0.00,,---,0.35,VWS V14.00,2013-07-22 03:48:00,
2013-07-21 22:51:00,78.3,70.1,29.03,SE,127,0.0,0.0,76,0.00,,---,0.35,VWS V14.00,2013-07-22 03:51:00,
2013-07-21 22:57:00,78.1,70.0,29.03,SE,127,0.0,0.0,76,0.00,,---,0.35,VWS V14.00,2013-07-22 03:57:00,
2013-07-21 23:00:00,78.1,70.0,29.03,SE,127,0.0,0.0,76,0.00,,---,0.35,VWS V14.00,2013-07-22 04:00:00,
2013-07-21 23:01:00,78.1,70.0,29.03,SE,127,0.0,0.0,76,0.00,,---,0.35,VWS V14.00,2013-07-22 04:01:00,
2013-07-21 23:03:00,78.1,70.0,29.03,SE,127,0.0,0.0,76,0.00,,---,0.35,VWS V14.00,2013-07-22 04:03:00,
2013-07-21 23:09:00,78.0,70.2,29.03,SE,127,0.0,0.0,77,0.00,,---,0.35,VWS V14.00,2013-07-22 04:09:00,
2013-07-21 23:15:00,78.0,70.2,29.03,SE,127,0.0,0.0,77,0.00,,---,0.35,VWS V14.00,2013-07-22 04:15:00,
2013-07-21 23:16:00,78.0,70.2,29.03,SE,127,0.0,0.0,77,0.00,,---,0.35,VWS V14.00,2013-07-22 04:16:00,
2013-07-21 23:21:00,77.8,70.0,29.03,SE,127,0.0,0.0,77,0.00,,---,0.35,VWS V14.00,2013-07-22 04:21:00,
2013-07-21 23:27:00,77.8,70.0,29.03,SE,127,0.0,0.0,77,0.00,,---,0.35,VWS V14.00,2013-07-22 04:27:00,
2013-07-21 23:30:00,77.8,70.0,29.03,SE,127,0.0,0.0,77,0.00,,---,0.35,VWS V14.00,2013-07-22 04:30:00,
2013-07-21 23:31:00,77.8,70.0,29.03,SE,127,0.0,0.0,77,0.00,,---,0.35,VWS V14.00,2013-07-22 04:31:00,
2013-07-21 23:36:00,77.6,69.8,29.03,SE,127,0.0,0.0,77,0.00,,---,0.35,VWS V14.00,2013-07-22 04:36:00,
2013-07-21 23:39:00,77.8,70.0,29.03,SE,127,0.0,0.0,77,0.00,,---,0.35,VWS V14.00,2013-07-22 04:39:00,
2013-07-21 23:42:00,77.6,69.8,29.03,SE,127,0.0,0.0,77,0.00,,---,0.35,VWS V14.00,2013-07-22 04:42:00,
2013-07-21 23:45:00,77.6,69.8,29.03,SE,127,0.0,0.0,77,0.00,,---,0.35,VWS V14.00,2013-07-22 04:45:00,
2013-07-21 23:48:00,77.6,69.8,29.03,SE,127,0.0,0.0,77,0.00,,---,0.35,VWS V14.00,2013-07-22 04:48:00,
2013-07-21 23:54:00,77.6,69.8,29.03,SE,127,0.0,0.0,77,0.00,,---,0.35,VWS V14.00,2013-07-22 04:54:00,
2013-07-21 23:57:00,77.6,70.2,29.03,SE,127,0.0,0.0,78,0.00,,---,0.35,VWS V14.00,2013-07-22 04:57:00,